Wind_Speed
35 35 34 33 34 34 34 34 34 34 35 36 36 34 31 31 32 31 31 31 32 32 33 33 32 31 31 32 32 33 33 34 35 35 36 37 37 37 37 37 37 38 38 39
35 35 33 34 34 34 34 34 33 34 35 35 36 35 33 31 31 31 30 31 31 31 32 32 32 31 31 32 32 32 33 34 34 35 35 35 35 35 35 36 37 38 39 39
36 34 34 34 34 35 35 35 34 33 34 36 37 36 34 33 32 31 30 29 29 29 30 30 31 31 32 32 32 33 33 33 34 35 34 34 35 34 35 36 35 37 38 38
35 34 35 35 35 35 36 34 34 34 35 36 36 37 34 33 32 31 30 29 28 29 29 30 30 31 31 32 33 32 31 32 33 34 34 33 33 34 35 35 36 36 36 37
35 34 35 35 34 35 35 34 35 35 35 36 35 37 35 34 33 31 30 30 29 29 30 31 30 30 31 31 32 32 31 32 32 33 33 34 32 33 33 34 36 36 36 37
34 35 35 34 33 34 34 35 36 36 37 38 35 36 35 34 32 31 31 30 29 29 30 31 30 30 31 31 31 32 31 31 31 32 32 33 32 32 32 34 35 36 36 36
34 34 34 34 34 33 33 34 35 37 38 39 36 37 35 34 33 32 31 30 30 29 29 29 30 30 31 31 32 32 31 31 31 32 32 32 32 31 31 33 34 35 34 34
34 34 33 34 34 34 33 33 34 36 37 37 36 37 35 33 33 33 32 31 31 30 29 29 29 30 30 30 31 32 31 30 31 32 32 32 32 32 31 32 33 34 35 33
33 33 33 33 32 32 32 33 32 34 35 36 36 36 35 33 33 33 32 31 30 30 29 29 29 30 29 29 30 31 30 30 30 31 31 31 31 31 31 31 31 32 34 34
32 32 31 32 32 32 33 32 31 32 33 35 36 35 33 32 32 32 31 30 29 29 28 28 28 28 28 29 29 29 28 28 28 29 29 29 30 30 30 30 30 30 32 34
32 32 32 32 33 33 33 34 34 34 34 35 36 35 32 31 31 31 30 30 29 29 28 28 28 28 28 28 28 28 28 28 29 29 29 29 29 29 30 30 30 30 31 32
32 34 33 33 33 34 35 35 35 35 35 35 35 34 32 31 31 31 30 29 29 28 28 28 29 29 29 28 28 28 28 29 29 29 29 30 30 29 30 30 31 31 31 32
32 33 33 33 33 33 34 35 35 35 34 33 32 32 31 30 31 30 29 29 29 29 29 29 29 29 29 29 29 29 29 29 29 29 30 30 29 29 30 31 32 32 32 33
30 31 33 33 32 32 33 34 34 35 35 35 33 31 31 31 30 30 29 30 30 30 30 29 29 29 29 29 29 29 29 29 29 30 30 30 30 30 30 31 31 32 33 33
31 31 31 32 32 33 33 33 34 34 34 34 32 32 31 31 31 31 30 30 30 30 29 29 28 28 28 28 28 28 28 29 29 30 31 32 31 31 31 32 32 32 33 34
32 33 32 30 31 33 33 31 33 33 33 33 33 33 32 32 32 32 32 31 30 30 30 29 28 28 28 28 28 28 28 28 29 30 30 30 32 32 32 32 33 33 34 35
30 31 32 31 30 32 33 31 31 32 32 32 32 32 31 32 32 32 31 31 30 30 30 30 29 29 29 29 29 29 28 29 29 29 30 30 31 32 33 33 34 34 35 35
27 29 30 30 30 31 30 31 31 31 31 31 31 31 31 30 32 33 34 32 31 30 30 30 30 29 29 29 29 29 29 29 29 29 30 31 32 32 33 34 35 35 35 36
25 26 27 27 27 28 28 30 31 31 31 30 30 30 31 31 32 33 33 33 33 32 30 31 30 30 30 30 30 30 30 30 30 30 31 31 32 32 33 34 34 35 36 37
24 23 24 25 25 25 25 27 29 31 31 30 30 30 31 31 32 32 33 33 34 33 32 31 31 31 31 31 31 31 31 31 31 31 31 31 32 33 34 34 35 36 37 38
21 22 22 23 23 23 22 23 25 28 29 30 31 31 31 31 31 31 31 32 33 33 33 32 32 32 32 32 31 31 31 31 31 32 32 32 32 33 34 35 35 36 37 37
18 20 21 21 22 22 22 23 25 26 27 30 31 31 31 31 30 31 31 32 32 33 34 34 33 33 33 33 32 32 32 32 32 32 32 33 33 34 34 35 35 35 36 36
17 18 20 22 22 22 22 23 25 26 26 27 28 29 29 29 30 30 31 31 32 33 33 33 33 33 33 33 33 33 32 32 33 33 33 33 34 34 34 34 35 35 35 35
17 17 19 20 21 22 24 25 25 25 25 26 27 28 28 29 29 29 30 31 32 32 33 33 33 33 32 32 32 33 33 33 33 34 34 34 34 34 34 34 34 34 34 35
18 18 18 19 21 21 22 24 25 26 26 27 27 27 28 28 29 29 29 30 31 31 32 33 34 34 34 33 33 33 33 33 33 34 34 34 34 34 34 34 35 35 35 35
19 19 19 19 20 21 21 23 24 24 25 26 27 27 27 28 29 29 30 30 30 31 31 32 32 33 33 33 33 33 33 33 33 34 34 34 34 34 34 34 34 35 36 36
Wind_Direction
263 263 263 262 261 262 262 260 258 256 257 257 256 255 253 253 254 254 255 255 255 254 254 255 256 257 257 258 258 256 255 256 258 260 260 258 258 256 254 254 254 253 252 251
261 261 261 259 258 259 258 258 258 257 257 258 257 256 254 253 253 254 254 253 253 254 255 256 257 257 259 260 259 259 260 259 261 260 261 260 261 259 256 255 253 253 252 251
260 260 258 258 257 258 257 258 258 258 258 257 257 255 253 251 251 253 254 253 254 255 256 257 259 260 261 261 261 261 261 259 261 261 261 259 260 259 257 255 255 254 252 251
259 258 257 257 257 258 257 257 257 257 257 257 256 255 251 251 251 251 252 253 255 255 255 255 258 262 264 262 259 260 262 260 261 261 260 258 260 258 257 256 255 255 254 253
259 258 257 257 257 256 257 255 256 255 255 255 254 254 250 251 250 251 252 254 255 256 257 256 259 263 263 263 261 260 261 262 262 262 259 258 260 258 256 256 256 255 254 255
258 256 256 257 254 254 254 253 254 255 254 253 252 253 251 250 251 253 253 255 257 258 259 259 260 261 263 262 262 261 261 261 261 261 260 259 260 259 258 259 259 257 256 256
256 255 255 254 252 251 252 251 252 254 254 254 252 253 253 251 251 252 254 257 260 260 261 261 260 261 262 262 261 261 261 261 261 260 259 258 259 260 261 261 262 259 258 259
258 255 253 252 252 252 251 250 251 254 255 256 253 253 253 253 253 253 255 258 261 262 263 263 263 262 260 261 261 261 261 262 261 260 259 260 259 260 262 264 264 261 258 259
258 256 252 252 251 250 248 246 249 252 254 256 255 254 252 251 253 254 256 258 261 262 262 263 263 261 261 261 262 261 261 262 262 262 262 263 262 263 263 265 264 261 257 256
258 256 250 250 249 249 248 245 246 249 253 255 255 254 253 253 253 254 255 257 259 260 261 263 262 261 262 263 261 261 261 261 262 265 265 265 263 262 262 263 264 260 258 257
257 255 251 249 248 246 246 245 246 248 250 253 255 254 253 253 254 253 253 254 257 257 259 260 261 260 260 261 261 262 262 262 262 264 264 264 264 263 262 262 263 261 260 260
256 255 252 250 249 246 245 245 246 247 248 251 253 253 253 252 251 251 251 253 255 256 257 258 258 258 258 258 258 259 260 261 261 263 264 265 265 265 263 263 263 262 262 262
255 254 253 250 248 247 246 245 246 247 247 248 250 251 251 250 249 250 250 252 254 255 257 258 259 258 259 258 256 256 257 258 259 260 261 263 264 264 264 263 263 262 262 262
255 254 253 252 249 247 245 244 246 245 246 247 247 248 249 248 248 248 250 251 253 255 257 258 258 258 258 257 256 256 256 257 258 259 260 261 263 262 262 263 262 261 262 263
255 255 255 253 251 248 246 245 246 246 246 249 249 248 247 247 247 247 249 252 254 256 256 257 257 257 258 257 256 256 258 257 258 260 262 262 262 263 263 262 262 261 262 264
256 255 254 254 252 249 246 245 245 244 246 249 248 247 246 247 247 248 250 252 254 255 255 256 257 257 258 257 256 257 258 258 260 261 262 264 264 264 264 263 262 262 263 264
258 255 254 254 253 249 246 244 243 242 245 248 247 248 248 249 248 249 251 252 252 254 255 256 258 258 257 256 255 256 257 259 261 262 263 263 264 264 264 264 263 263 263 264
260 257 256 254 250 251 250 245 244 242 242 245 246 247 247 248 249 249 251 253 253 254 255 255 256 257 257 257 257 258 259 261 262 263 264 263 263 264 265 265 266 265 265 265
259 257 254 252 251 251 248 246 245 244 242 242 244 245 246 248 248 249 251 253 253 255 255 255 256 256 257 257 258 259 260 262 263 264 264 264 264 265 266 267 267 267 267 268
258 255 254 251 251 250 249 248 247 246 244 242 245 247 249 250 251 251 250 251 251 252 253 255 256 256 257 258 259 260 261 263 264 264 264 264 266 266 267 269 268 269 269 270
254 250 248 247 249 248 247 247 246 247 247 245 247 247 248 250 251 251 251 250 250 251 252 255 256 256 257 259 260 261 262 263 263 264 264 264 266 267 269 269 270 270 270 270
253 248 244 244 246 247 247 247 247 248 247 248 248 248 249 249 250 251 251 251 251 252 254 255 257 257 258 259 260 261 262 263 264 264 264 266 267 268 270 271 271 271 271 271
250 251 249 246 246 246 247 249 248 247 248 248 248 247 246 247 249 251 251 253 254 254 256 257 257 258 258 259 259 260 261 263 263 264 266 267 269 270 271 270 271 271 272 272
247 252 254 250 247 247 247 249 250 251 252 252 250 250 249 249 250 252 253 254 255 256 257 258 257 258 259 260 261 260 261 263 264 265 266 268 269 270 270 270 271 271 272 273
250 251 252 249 248 249 249 250 252 253 254 253 252 252 252 252 253 253 254 255 256 258 259 259 260 260 260 261 262 262 262 264 265 265 266 268 269 269 269 269 270 271 272 273
250 253 254 252 250 252 253 252 254 255 255 254 252 251 252 253 253 254 255 257 258 259 259 261 262 262 262 262 263 264 264 265 266 267 267 267 268 269 270 270 271 273 273 274
Height
5693 5695 5696 5698 5698 5699 5699 5700 5701 5704 5704 5704 5705 5708 5710 5710 5711 5713 5714 5715 5716 5717 5717 5718 5719 5721 5722 5723 5723 5724 5725 5726 5726 5727 5728 5729 5730 5730 5732 5733 5734 5735 5737 5739
5684 5686 5688 5687 5688 5688 5689 5690 5692 5694 5694 5694 5695 5698 5700 5701 5703 5705 5706 5707 5708 5709 5709 5710 5711 5713 5714 5714 5715 5716 5716 5717 5717 5718 5719 5719 5720 5721 5722 5723 5724 5725 5726 5728
5673 5678 5677 5677 5678 5679 5680 5682 5684 5684 5685 5684 5686 5688 5691 5693 5695 5696 5697 5698 5699 5701 5702 5703 5704 5705 5705 5706 5706 5707 5707 5708 5708 5709 5709 5710 5710 5711 5712 5713 5714 5715 5717 5718
5663 5666 5666 5667 5668 5670 5671 5674 5674 5675 5675 5676 5677 5678 5683 5685 5686 5688 5689 5690 5692 5693 5694 5695 5696 5696 5697 5697 5697 5698 5698 5699 5700 5700 5700 5701 5702 5703 5703 5704 5705 5706 5708 5709
5653 5655 5656 5657 5660 5660 5662 5664 5664 5665 5665 5666 5668 5668 5674 5675 5677 5680 5681 5683 5684 5685 5686 5687 5687 5688 5688 5688 5689 5689 5690 5690 5691 5692 5692 5693 5693 5694 5694 5695 5696 5697 5698 5700
5643 5644 5645 5647 5649 5650 5652 5653 5654 5654 5655 5656 5660 5660 5663 5667 5670 5671 5673 5675 5676 5677 5677 5678 5679 5679 5679 5680 5680 5681 5681 5682 5683 5683 5684 5684 5685 5685 5685 5686 5687 5688 5689 5690
5631 5633 5634 5636 5638 5640 5642 5643 5644 5644 5644 5647 5652 5651 5655 5659 5661 5663 5665 5666 5667 5668 5669 5669 5670 5671 5671 5672 5672 5673 5673 5674 5675 5675 5675 5676 5676 5676 5677 5678 5678 5679 5680 5681
5619 5623 5625 5626 5628 5630 5632 5634 5636 5636 5637 5640 5641 5642 5648 5651 5652 5654 5656 5658 5659 5660 5661 5661 5662 5662 5663 5663 5663 5664 5665 5666 5666 5667 5667 5667 5667 5668 5668 5669 5670 5670 5671 5671
5608 5612 5615 5616 5618 5620 5622 5624 5627 5628 5628 5630 5631 5634 5639 5642 5643 5646 5648 5649 5650 5652 5652 5653 5654 5654 5655 5655 5656 5656 5657 5657 5658 5658 5658 5658 5659 5659 5660 5660 5661 5661 5662 5663
5598 5601 5604 5606 5608 5610 5613 5615 5617 5618 5619 5620 5623 5626 5630 5633 5635 5637 5639 5641 5642 5643 5644 5645 5645 5646 5646 5647 5647 5648 5649 5649 5650 5650 5651 5651 5651 5651 5651 5652 5653 5653 5654 5655
5589 5591 5594 5596 5598 5600 5603 5605 5607 5609 5611 5612 5614 5620 5622 5624 5626 5629 5631 5632 5633 5635 5636 5637 5637 5637 5638 5639 5639 5640 5641 5641 5642 5642 5642 5642 5642 5643 5643 5644 5644 5645 5645 5646
5579 5581 5583 5587 5589 5590 5593 5595 5598 5600 5602 5604 5606 5612 5613 5616 5617 5619 5621 5623 5624 5626 5627 5628 5629 5629 5630 5630 5631 5632 5633 5633 5634 5634 5634 5634 5634 5634 5635 5635 5636 5636 5637 5637
5569 5572 5574 5577 5581 5581 5583 5586 5588 5591 5593 5595 5598 5604 5604 5606 5608 5610 5612 5614 5615 5617 5618 5619 5620 5621 5621 5622 5623 5624 5624 5625 5625 5626 5626 5626 5626 5626 5626 5627 5627 5628 5629 5629
5560 5562 5565 5568 5570 5572 5574 5577 5579 5581 5583 5586 5589 5593 5596 5598 5600 5602 5604 5605 5607 5608 5609 5610 5611 5612 5613 5613 5614 5615 5615 5616 5617 5617 5617 5617 5618 5618 5618 5618 5619 5619 5620 5620
5550 5553 5555 5558 5560 5562 5564 5567 5570 5571 5574 5577 5581 5583 5587 5589 5591 5593 5595 5596 5598 5599 5600 5601 5602 5603 5604 5604 5605 5606 5606 5607 5608 5608 5609 5609 5609 5610 5610 5610 5610 5611 5611 5612
5541 5543 5545 5547 5550 5552 5555 5559 5561 5563 5566 5568 5571 5575 5577 5579 5581 5583 5585 5587 5589 5590 5592 5593 5594 5594 5595 5596 5596 5597 5598 5598 5599 5600 5600 5600 5600 5601 5601 5601 5601 5602 5602 5602
5532 5534 5535 5538 5540 5541 5546 5550 5552 5554 5557 5559 5562 5566 5568 5570 5572 5574 5576 5578 5580 5581 5583 5585 5585 5586 5587 5588 5588 5589 5589 5590 5590 5591 5591 5591 5592 5592 5592 5592 5592 5592 5592 5592
5523 5525 5526 5528 5531 5533 5540 5541 5543 5545 5548 5550 5553 5556 5559 5561 5563 5565 5566 5569 5571 5572 5574 5575 5577 5578 5578 5579 5580 5581 5581 5582 5582 5582 5582 5583 5583 5583 5583 5583 5583 5583 5583 5583
5515 5516 5518 5520 5521 5524 5530 5531 5533 5536 5539 5542 5544 5546 5549 5551 5554 5556 5558 5559 5561 5563 5565 5566 5568 5569 5570 5571 5571 5572 5573 5573 5573 5574 5574 5574 5574 5574 5574 5573 5573 5573 5573 5573
5508 5509 5511 5512 5514 5517 5521 5523 5524 5528 5530 5533 5535 5537 5539 5542 5545 5548 5549 5550 5552 5554 5556 5557 5559 5560 5561 5562 5563 5563 5564 5564 5564 5564 5564 5564 5564 5564 5564 5564 5563 5563 5563 5562
5500 5502 5503 5505 5506 5509 5513 5515 5517 5521 5523 5525 5526 5528 5531 5533 5536 5538 5539 5540 5542 5544 5546 5548 5550 5551 5552 5553 5554 5554 5555 5555 5555 5555 5555 5555 5555 5555 5554 5554 5553 5552 5552 5552
5494 5495 5497 5499 5500 5505 5506 5508 5510 5511 5514 5515 5517 5520 5522 5524 5526 5528 5530 5531 5533 5535 5537 5538 5540 5541 5542 5543 5544 5545 5545 5546 5546 5546 5546 5546 5545 5545 5544 5544 5543 5543 5542 5542
5488 5490 5491 5493 5496 5497 5498 5500 5502 5503 5505 5507 5509 5511 5513 5515 5517 5519 5520 5522 5523 5525 5527 5528 5530 5531 5532 5533 5534 5535 5536 5536 5536 5536 5536 5536 5536 5535 5535 5534 5533 5533 5532 5532
5483 5484 5485 5486 5488 5490 5491 5493 5494 5496 5498 5499 5501 5503 5504 5506 5508 5510 5511 5513 5514 5516 5517 5519 5520 5521 5523 5523 5524 5525 5526 5526 5526 5527 5526 5526 5526 5525 5525 5524 5524 5523 5522 5521
5477 5478 5479 5480 5482 5483 5485 5486 5487 5489 5490 5491 5493 5494 5496 5498 5499 5501 5502 5504 5505 5506 5508 5509 5510 5511 5512 5513 5514 5515 5516 5516 5516 5516 5516 5516 5516 5515 5515 5514 5514 5513 5512 5511
5472 5473 5474 5475 5476 5477 5478 5479 5480 5481 5482 5483 5485 5486 5488 5489 5491 5492 5494 5495 5496 5497 5498 5499 5500 5501 5502 5503 5504 5505 5506 5506 5506 5506 5506 5506 5506 5505 5505 5504 5504 5502 5501 5500